{"data":{"norad_id":51651,"epoch":"2026-09-20T00:32:17.466432Z","epoch_age_seconds":67049,"freshness":"FRESH","line1":"1 51651U 22012AF  26263.02242438  .00000054  00000+0  11840-3 0  9994","line2":"2 51651  87.8894  17.3989 0001939  94.7146 265.4203 13.10369277221741","mean_motion":13.10369277,"eccentricity":0.0001939,"inclination_deg":87.8894,"raan_deg":17.3989,"arg_perigee_deg":94.7146,"mean_anomaly_deg":265.4203,"bstar":0.0001184,"rev_number":22174,"period_min":109.8926863805,"perigee_km":1220.2572238793,"apogee_km":1223.204452627,"semimajor_km":7599.8678382531,"source":"CELESTRAK","updated_at":"2026-09-20T09:00:44.713653Z"}}